Regional Weather Roundup
Issued by NWS

Home | Current Version | Previous Version | Graphics & Text | Print | Product List | Glossary On
Versions: 1 2 3 4 5 6 7 8 9 10 11 12 13 14 15 16 17 18 19 20 21 22 23 24 25 26 27
000
ASUS45 KPSR 220310
RWRAZ

ARIZONA HOURLY REGIONAL WEATHER ROUNDUP
NATIONAL WEATHER SERVICE PHOENIX AZ
800 PM MST SAT APR 21 2018

NOTE: FAIR INDICATES FEW OR NO CLOUDS BELOW 12,000 FEET WITH NO
SIGNIFICANT WEATHER AND/OR OBSTRUCTIONS TO VISIBILITY.

AZZ001>003-036-220400-
NORTHWEST ARIZONA

CITY           SKY/WX    TMP DP  RH WIND       PRES   REMARKS
BULLHEAD CITY  PTCLDY    86  19   8 N9        29.87R
KINGMAN        PTCLDY    71  24  17 N13       30.03R
$$

AZZ004>008-015-016-018-220400-
NORTH CENTRAL ARIZONA

CITY           SKY/WX    TMP DP  RH WIND       PRES   REMARKS
GRAND CANYON   CLEAR     46  28  49 CALM      30.21R
WILLIAMS       CLEAR     55  18  22 CALM      30.18R
PRESCOTT       MOCLDY    65  19  17 SW7       30.10R
FLAGSTAFF      CLEAR     52  22  30 E6        30.22R
PAYSON         PTCLDY    66  18  15 NE6       30.12R
PAGE           CLEAR     66  28  24 NE6       30.07R
$$

AZZ009>014-017-220400-
NORTHEAST ARIZONA

CITY           SKY/WX    TMP DP  RH WIND       PRES   REMARKS
WINSLOW        CLEAR     55  26  32 W5        30.12R
SAINT JOHNS    CLEAR     56  33  42 SW7       30.15R
WINDOW ROCK    CLEAR     53  26  35 CALM      30.20R
SHOW LOW       CLEAR     52  25  35 CALM      30.21R
$$

AZZ540-542>544-546-548-220400-
GREATER PHOENIX AREA

CITY           SKY/WX    TMP DP  RH WIND       PRES   REMARKS
PHOENIX        PTCLDY    85  30  13 W12       29.88R
BUCKEYE        PTCLDY    77  30  18 CALM      29.90R
LUKE AFB       CLEAR     80  32  18 SW7       29.88R
DEER VALLEY    CLEAR     80  30  16 SW6       29.91R
SCOTTSDALE     CLEAR     82  33  17 W3        29.93R
MESA-FALCON    PTCLDY    81  34  18 W6        29.92R
MESA-GATEWAY   PTCLDY    79  32  18 SW6       29.92R
CHANDLER       MOCLDY    82  30  15 VRB5      29.91R
$$

AZZ539-553-220400-
SOUTHWEST MARICOPA COUNTY AND PINAL COUNTY

CITY           SKY/WX    TMP DP  RH WIND       PRES   REMARKS
CASA GRANDE    MOCLDY    78  29  16 S5        29.93R
GILA BEND      MOCLDY    82  22  11 W6        29.89R
$$

AZZ503-504-507>509-220400-
SOUTHEAST ARIZONA

CITY           SKY/WX    TMP DP  RH WIND       PRES   REMARKS
TUCSON         CLOUDY    76  26  15 NW13      30.00R
DAVIS-MONTHAN  MOCLDY    74  28  18 N6        29.98R
RYAN FIELD     CLEAR     73  27  17 NW5       29.99R
NOGALES        CLOUDY    68  25  19 E3        30.04R
SIERRA VISTA   MOCLDY    66  19  17 W8        30.10
DOUGLAS        MOCLDY    66  14  13 SE7       30.06R
SAFFORD        MOCLDY    74  23  15 W5        29.98R
$$

AZZ532-220400-
SOUTHWEST ARIZONA

CITY           SKY/WX    TMP DP  RH WIND       PRES   REMARKS
YUMA           PTCLDY    80  41  24 W5        29.88S
$$

CAZ041-043-047-048-061-525>527-560>570-220400-
SOUTHERN CALIFORNIA

CITY           SKY/WX    TMP DP  RH WIND       PRES   REMARKS
DOWNTOWN L.A.  MOCLDY    63  52  67 CALM      29.95R
L.A. AIRPORT   MOCLDY    61  53  75 W8        29.96S
SAN DIEGO      MOCLDY    64  55  72 N5        29.99
BURBANK        MOCLDY    81  36  19 NW3       29.96R
ONTARIO        CLOUDY    77  36  22 SW8       29.95S
RIVERSIDE      CLOUDY    76  39  26 W8        29.96R
PALM SPRINGS   CLOUDY    87  28  12 E7        29.90R
EL CENTRO NAS  CLOUDY    80  31  16 SE7       29.88R
IMPERIAL       MOCLDY    84  30  14 S3        29.87R
BLYTHE         CLOUDY    84  28  13 S6        29.88R
NEEDLES        MOCLDY    86  19   8 NW5       29.90R
$$

NVZ020-UTZ003-220400-
SOUTHERN NEVADA-UTAH

CITY           SKY/WX    TMP DP  RH WIND       PRES   REMARKS
LAS VEGAS      MOCLDY    81  27  14 SE3       29.97R
SALT LAKE CITY PTCLDY    61  29  29 CALM      30.13R
$$

NMZ009-TXZ055-220400-
NEW MEXICO-WEST TEXAS

CITY           SKY/WX    TMP DP  RH WIND       PRES   REMARKS
ALBUQUERQUE    PTCLDY    63  25  23 CALM      30.11R
EL PASO        MOCLDY    68  26  20 NE8       30.07R
$$


........................KEY........................
SKY/WX - SKY CONDITION/WEATHER
TMP    - TEMPERATURE IN FAHRENHEIT
DP     - DEW POINT IN FAHRENHEIT
RH     - RELATIVE HUMIDITY IN PERCENT
WIND   - DIRECTION AND SPEED IN MILES PER HOUR (MPH)
VRB    - VARIABLE WIND DIRECTION
PRES   - MEAN SEA LEVEL PRESSURE IN INCHES OF MERCURY
         F - FALLING PRESSURE   R - RISING PRESSURE
         S - STEADY PRESSURE
VSB    - VISIBILITY IN MILES
HX     - HEAT INDEX IN FAHRENHEIT
WCI    - WIND CHILL INDEX IN FAHRENHEIT
TC     - TEMPERATURE IN CELSIUS WHICH IS ALSO KNOWN AS
         TEMPERATURE IN CENTIGRADE
AFB    - AIR FORCE BASE
         LUKE AFB IS LUKE AIR FORCE BASE
         DAVIS-MONTHAN IS DAVIS-MONTHAN AIR FORCE BASE
NAS    - NAVAL AIR STATION
         EL CENTRO NAS IS EL CENTRO NAVAL AIR STATION
N/A    - NOT AVAILABLE





USA.gov is the U.S. government's official web portal to all federal, state and local government web resources and services.